User: anonymous   Login
Location: Unspecified
(0.0000°N, 0.0000°E)
Time: 00:05:17
(UTC+02:00)
Language:

Centaur AC-64 - Orbit

View from above orbital plane
View from above orbital plane
View from above satellite
View from above satellite

Ground track
Ground track

The orbit data is extracted from the following two-line orbital elements,

1 15874U 85055B   16178.71486539 +.00001100 +00000-0 +40436-3 0  9996
2 15874 023.2094 296.7975 6582788 201.1721 108.8702 03.17972916319127
Epoch (UTC): 26 June 2016 17:09:24
Eccentricity: 0.6582788
inclination: 23.2094°
perigee height: 297 km
apogee height: 26016 km
right ascension of ascending node: 296.7975°
argument of perigee: 201.1721°
revolutions per day: 3.17972916
mean anomaly at epoch: 108.8702°
orbit number at epoch: 31912

The dashed part of the orbit path shows where the satellite is in the earth's shadow,  

DLR